Minot, ND

8:36 PM CST on February 07, 2016 (GMT -0600)
Minot International

Weather History for KMOT - April, 2013

Change the Weather History Date:

Thursday, April 4, 2013

  Actual Average Record
Temperature  
Mean Temperature 27 °F 38 °F  
Max Temperature 32 °F 49 °F 75 °F (1912)
Min Temperature 22 °F 27 °F -3 °F (1920)
Degree Days  
Heating Degree Days 38 27  
Month to date heating degree days 167 112  
Since 1 July heating degree days 8477 7827  
Cooling Degree Days 0 0  
Month to date cooling degree days 0 0  
Year to date cooling degree days 0 0  
Moisture  
Dew Point 21 °F    
Average Humidity 76    
Maximum Humidity 88    
Minimum Humidity 63    
Precipitation  
Precipitation 0.00 in 0.03 in 0.78 in (1961)
Month to date precipitation 0.00 0.12  
Year to date precipitation 1.15 1.87  
Sea Level Pressure  
Sea Level Pressure 30.28 in    
Wind  
Wind Speed 10 mph (NNW)    
Max Wind Speed 20 mph    
Max Gust Speed 23 mph    
Visibility 10 miles    
Events      
T = Trace of Precipitation, MM = Missing Value Source: NWS Daily Summary

Daily Weather History Graph

Daily Weather History Graph

Search for Another Location

Airport or City:

Trip Planner

Search our weather history database for the weather conditions in past years. The results will help you decide how hot, cold, wet, or windy it might be!

Date:

Astronomy

Apr. 04, 2013 Rise Set
Actual Time 7:16 AM CDT 8:20 PM CDT
Civil Twilight 6:44 AM CDT 8:52 PM CDT
Nautical Twilight 6:06 AM CDT 9:30 PM CDT
Astronomical Twilight 5:25 AM CDT 10:11 PM CDT
Moon 4:10 AM CDT (4/4) 2:16 PM CDT (4/4)
Length of Visible Light 14h 07m
Length of Day
13h 03m
Waning Crescent, 33% of the Moon is Illuminated
Apr 4
Waning Crescent
Apr 10
New
Apr 18
First Quarter
Apr 25
Full
May 2
Last Quarter

Hourly Weather History & Observations

Time (CDT) Temp. Windchill Dew Point Humidity Pressure Visibility Wind Dir Wind Speed Gust Speed Precip Events Conditions
12:54 AM 28.9 °F 16.9 °F 24.1 °F 82% 30.18 in 10.0 mi WNW 17.3 mph - N/A   Clear
1:54 AM 28.0 °F 16.1 °F 23.0 °F 81% 30.18 in 10.0 mi WNW 16.1 mph - N/A   Clear
2:54 AM 27.0 °F 14.3 °F 21.9 °F 81% 30.22 in 10.0 mi West 17.3 mph - N/A   Clear
3:54 AM 26.1 °F 12.3 °F 21.9 °F 84% 30.22 in 10.0 mi WNW 19.6 mph - N/A   Clear
4:54 AM 26.1 °F 14.5 °F 21.0 °F 81% 30.23 in 10.0 mi WNW 13.8 mph - N/A   Clear
5:54 AM 26.1 °F 14.0 °F 21.0 °F 81% 30.26 in 10.0 mi WNW 15.0 mph - N/A   Mostly Cloudy
6:54 AM 26.1 °F 15.6 °F 21.0 °F 81% 30.27 in 10.0 mi WNW 11.5 mph - N/A   Mostly Cloudy
7:54 AM 25.0 °F 13.6 °F 19.9 °F 81% 30.29 in 10.0 mi West 12.7 mph - N/A   Mostly Cloudy
8:54 AM 26.1 °F 15.6 °F 21.0 °F 81% 30.30 in 10.0 mi WNW 11.5 mph - N/A   Partly Cloudy
9:54 AM 27.0 °F 18.0 °F 21.9 °F 81% 30.31 in 10.0 mi NW 9.2 mph - N/A   Partly Cloudy
10:54 AM 28.9 °F 20.4 °F 21.9 °F 75% 30.32 in 10.0 mi NW 9.2 mph - N/A   Clear
11:54 AM 30.0 °F 21.7 °F 21.9 °F 72% 30.33 in 10.0 mi NW 9.2 mph - N/A   Clear
12:54 PM 30.9 °F 22.8 °F 21.0 °F 67% 30.33 in 10.0 mi NNW 9.2 mph - N/A   Clear
1:54 PM 30.9 °F 24.3 °F 21.0 °F 67% 30.31 in 10.0 mi North 6.9 mph - N/A   Clear
2:54 PM 30.9 °F 25.2 °F 21.0 °F 67% 30.31 in 10.0 mi North 5.8 mph - N/A   Clear
3:54 PM 30.9 °F 26.2 °F 21.0 °F 67% 30.30 in 10.0 mi North 4.6 mph - N/A   Clear
4:54 PM 32.0 °F 28.7 °F 21.0 °F 64% 30.30 in 10.0 mi NNE 3.5 mph - N/A   Clear
5:54 PM 30.9 °F 26.2 °F 19.9 °F 64% 30.30 in 10.0 mi North 4.6 mph - N/A   Clear
6:54 PM 30.0 °F 25.2 °F 19.9 °F 66% 30.30 in 10.0 mi ENE 4.6 mph - N/A   Clear
7:54 PM 27.0 °F 21.6 °F 21.9 °F 81% 30.29 in 10.0 mi NNE 4.6 mph - N/A   Clear
8:54 PM 25.0 °F 20.7 °F 21.0 °F 85% 30.28 in 10.0 mi ENE 3.5 mph - N/A   Clear
9:54 PM 24.1 °F 16.0 °F 19.9 °F 84% 30.27 in 10.0 mi East 6.9 mph - N/A   Clear
10:54 PM 23.0 °F 13.9 °F 19.0 °F 85% 30.27 in 10.0 mi ESE 8.1 mph - N/A   Clear
11:54 PM 23.0 °F 12.4 °F 19.0 °F 85% 30.24 in 10.0 mi ESE 10.4 mph - N/A   Clear